Regional Weather Roundup
Issued by NWS

Home | Current Version | Previous Version | Text Only | Print | Product List | Glossary On
Versions: 1 2 3 4 5 6 7 8 9 10 11 12 13 14 15 16 17 18 19 20 21 22 23 24 25 26 27 28 29 30 31 32 33 34 35 36 37 38 39 40 41 42 43 44 45 46 47 48 49 50
000
ASCA42 TJSJ 221110
RWRPR
PUERTO RICO/U.S. VIRGIN ISLANDS HOURLY WEATHER ROUNDUP
NATIONAL WEATHER SERVICE SAN JUAN PR
700 AM AST WED FEB 22 2017

PRZ001>002-007>008-010-221200-
PUERTO RICO

CITY           SKY/WX    TMP DP  RH WIND       PRES   REMARKS
SAN JUAN LMM   PTCLDY    73  66  78 CALM      29.87R
AGUADILLA      PTCLDY    72  63  73 NE8       29.88
CEIBA          PTCLDY    68  64  88 W5        29.89R
$$

VIZ001>002-221200-
U.S. VIRGIN ISLANDS

CITY           SKY/WX    TMP DP  RH WIND       PRES   REMARKS
CHARLOTTE AMA  CLOUDY    75  66  73 N6        29.84R
CHRISTIANSTED  CLOUDY    70  66  88 NE6       29.88R
$$

HOURLY WEATHER ROUNDUP FOR THE NEWS MEDIA

CITY           SKY/WX    TMP DP  RH WIND       PRES   REMARKS
ORLANDO        CLOUDY    66  62  87 E5        29.82R
NEW YORK       CLOUDY    41  38  89 SW5       30.08S
NEWARK         CLOUDY    42  35  76 S6        30.06S
CHICAGO        FOG       56  54  93 SW10      29.82R VSB 3/4
HARTFORD       CLOUDY    42  36  79 SW7       30.04S
BOSTON         CLOUDY    39  33  79 SW9       30.03F WCI  33
DALLAS         CLEAR     49  45  86 CALM      29.91R
PHILADELPHIA   CLOUDY    42  37  82 CALM      30.08R
LOS ANGELES    PTCLDY    54  53  97 W8        30.15F
WASHINGTON DC  CLOUDY    45  38  76 CALM      30.02S


USA.gov is the U.S. government's official web portal to all federal, state and local government web resources and services.